Weather reports worldwide

Advertisment
Vigo Peinador, Spain (8045): temperature & dewpoint: 13.08.2019 00:00:00 - 19.08.2019 00:00:00 (CEST)Vigo Peinador, Spain (8045): wind speed: 13.08.2019 00:00:00 - 19.08.2019 00:00:00 (CEST)Vigo Peinador, Spain (8045): wind direction: 13.08.2019 00:00:00 - 19.08.2019 00:00:00 (CEST)Vigo Peinador, Spain (8045): reduced air pressure: 13.08.2019 00:00:00 - 19.08.2019 00:00:00 (CEST)Vigo Peinador, Spain (8045): visibility: 13.08.2019 00:00:00 - 19.08.2019 00:00:00 (CEST)
Date & Time tt [°C] td [°C] ff [km/h] ff [kn] dd ppp [hPa] vv [km]
19.08.2019 00:00:00 16,3 11,3 18 10 N 1019,9 10
18.08.2019 23:00:00 16,7 11,4 18 10 N 1019,2 25
18.08.2019 22:00:00 17,6 12,1 21 11 N 1018,3 10
18.08.2019 21:00:00 18,7 12,9 16 9 NNW 1017,5 10
18.08.2019 20:00:00 19,6 14,4 11 6 WNW 1017,5 30
18.08.2019 19:00:00 20,3 14,5 16 9 W 1017,2 10
18.08.2019 18:00:00 20,5 14,2 21 11 W 1017,2 10
18.08.2019 17:00:00 21,6 14,8 21 11 W 1016,8 10
18.08.2019 16:00:00 22,2 15,4 13 7 NE 1016,6 10
18.08.2019 15:00:00 21,1 15,7 15 8 N 1016,6 10
18.08.2019 14:00:00 20,9 16,2 15 8 N 1016,4 10
18.08.2019 13:00:00 19,0 15,5 16 9 N 1016,5 10
18.08.2019 12:00:00 18,7 16,7 15 8 N 1016,3 8
18.08.2019 11:00:00 18,2 16,4 21 11 N 1015,5 6
18.08.2019 10:00:00 17,5 17,3 8 4 NNE 1014,8 3,0
18.08.2019 09:00:00 17,5 17,3 8 4 N 1013,9 0,3
18.08.2019 08:00:00 18,3 18,1 11 6 WSW 1013,2 0,4
18.08.2019 07:00:00 19,2 19,0 5 3 SW 1012,6 1,0
18.08.2019 06:00:00 19,2 18,9 11 6 S 1012,7 4,0
18.08.2019 05:00:00 19,4 18,9 13 7 S 1013,1 10
18.08.2019 04:00:00 19,3 18,8 13 7 S 1013,6 10
18.08.2019 03:00:00 19,2 18,5 13 7 S 1014,2 10
18.08.2019 02:00:00 19,3 18,5 11 6 S 1014,8 10
18.08.2019 01:00:00 19,7 18,0 8 4 S 1015,0 10
18.08.2019 00:00:00 20,2 17,8 9 5 SSW 1015,6 10
17.08.2019 23:00:00 20,5 17,5 8 4 SW 1015,4 10
17.08.2019 22:00:00 20,8 17,7 11 6 SW 1014,9 10
17.08.2019 21:00:00 20,9 18,1 15 8 WSW 1015,0 10
17.08.2019 20:00:00 20,8 18,6 16 9 WSW 1015,3 20
17.08.2019 19:00:00 21,6 18,5 21 11 W 1015,4 10
17.08.2019 18:00:00 22,2 18,6 24 13 W 1015,5 10
17.08.2019 17:00:00 23,8 17,5 13 7 W 1015,5 30
17.08.2019 16:00:00 23,8 18,4 15 8 W 1015,8 10
17.08.2019 15:00:00 23,7 18,5 13 7 W 1016,2 10
17.08.2019 14:00:00 23,0 18,1 11 6 SW 1016,6 20
17.08.2019 13:00:00 23,1 17,5 9 5 S 1016,9 10
17.08.2019 12:00:00 21,6 17,0 11 6 S 1017,2 10
17.08.2019 11:00:00 20,0 16,8 9 5 SSW 1017,6 10
17.08.2019 10:00:00 19,2 16,8 11 6 SSW 1017,7 10
17.08.2019 09:00:00 18,1 16,6 11 6 S 1017,6 10
17.08.2019 08:00:00 17,6 16,6 13 7 SSW 1017,7 25
17.08.2019 07:00:00 17,6 16,8 11 6 SSW 1017,9 10
17.08.2019 06:00:00 17,2 16,6 13 7 SSW 1017,9 10
17.08.2019 05:00:00 18,2 16,9 8 4 SW 1018,0 10
17.08.2019 04:00:00 17,6 16,8 4 2 - 1018,5 10
17.08.2019 03:00:00 17,1 16,1 5 3 W 1018,9 10
17.08.2019 02:00:00 17,4 16,4 5 3 WSW 1019,2 20
17.08.2019 01:00:00 17,9 16,6 4 2 WSW 1019,3 10
17.08.2019 00:00:00 17,5 16,2 2 1 - 1019,9 10
16.08.2019 23:00:00 18,3 16,8 2 1 NE 1019,6 30
16.08.2019 22:00:00 18,8 16,8 9 5 WNW 1019,3 10
16.08.2019 21:00:00 19,3 16,9 16 9 W 1018,8 10
16.08.2019 20:00:00 21,0 17,0 18 10 W 1018,6 40
16.08.2019 19:00:00 22,1 16,9 18 10 W 1018,6 10
16.08.2019 18:00:00 23,1 16,4 15 8 W 1018,7 10
16.08.2019 17:00:00 22,5 15,8 16 9 W 1019,1 10
16.08.2019 16:00:00 22,8 15,6 18 10 W 1019,3 10
16.08.2019 15:00:00 23,8 16,5 16 9 W 1019,3 10
16.08.2019 14:00:00 23,0 16,0 18 10 W 1019,5 40
16.08.2019 13:00:00 22,7 15,7 11 6 W 1019,4 10
16.08.2019 12:00:00 21,9 16,6 4 2 S 1019,7 10
16.08.2019 11:00:00 20,7 16,1 4 2 - 1019,3 10
16.08.2019 10:00:00 18,2 15,7 4 2 WSW 1019,8 10
16.08.2019 09:00:00 17,4 15,9 4 2 E 1019,8 0,1
16.08.2019 08:00:00 15,0 15,0 2 1 - - 1,0
16.08.2019 07:00:00 14,6 13,6 5 3 W 1019,9 10
16.08.2019 06:00:00 15,2 13,7 4 2 NNW 1019,7 10
16.08.2019 05:00:00 15,4 14,3 8 4 WNW 1019,7 15
16.08.2019 04:00:00 15,9 14,7 5 3 NW 1020,0 10
16.08.2019 03:00:00 16,8 15,0 4 2 - 1020,2 10
16.08.2019 02:00:00 17,8 15,2 4 2 WNW 1020,4 15
16.08.2019 01:00:00 18,9 15,0 8 4 N 1020,2 10
16.08.2019 00:00:00 20,0 15,0 9 5 N 1020,4 10
15.08.2019 23:00:00 20,7 15,0 9 5 N 1020,4 10
15.08.2019 22:00:00 20,0 16,5 8 4 W 1020,3 10
15.08.2019 21:00:00 21,3 16,7 8 4 WNW 1019,9 10
15.08.2019 20:00:00 22,6 16,7 18 10 W 1019,7 10
15.08.2019 19:00:00 23,8 17,0 18 10 WSW 1019,8 10
15.08.2019 18:00:00 24,4 16,7 21 11 W 1020,0 10
15.08.2019 17:00:00 24,6 16,2 18 10 W 1020,2 15
15.08.2019 16:00:00 24,5 16,4 16 9 W 1020,7 10
15.08.2019 15:00:00 23,5 16,0 16 9 W 1021,2 10
15.08.2019 14:00:00 24,2 16,4 16 9 WSW 1021,1 9
15.08.2019 13:00:00 23,9 13,8 15 8 W 1021,5 9
15.08.2019 12:00:00 24,1 16,0 5 3 - 1021,4 9
15.08.2019 11:00:00 23,0 15,9 4 2 - 1021,3 10
15.08.2019 10:00:00 20,5 15,6 4 2 SE 1021,5 9
15.08.2019 09:00:00 16,9 15,5 4 2 - 1021,6 8
15.08.2019 08:00:00 15,5 14,4 4 2 NE 1021,9 10
15.08.2019 07:00:00 14,8 14,2 4 2 - 1021,7 8
15.08.2019 06:00:00 16,2 16,0 5 3 NNE 1021,6 0,1
15.08.2019 05:00:00 16,7 16,6 5 3 N 1021,5 0,8
15.08.2019 04:00:00 17,4 17,4 11 6 N 1022,0 0,8
15.08.2019 03:00:00 17,7 17,5 9 5 NE 1022,4 -
15.08.2019 02:00:00 18,1 17,9 5 3 N 1022,7 0,3
15.08.2019 01:00:00 18,1 17,8 5 3 W 1022,7 0,1
15.08.2019 00:00:00 18,2 17,9 4 2 W 1022,5 0,2
14.08.2019 23:00:00 18,1 17,8 8 4 W 1022,3 0,6
14.08.2019 22:00:00 18,8 18,3 11 6 W 1021,9 3,0
14.08.2019 21:00:00 20,0 18,5 15 8 W 1021,5 10
14.08.2019 20:00:00 22,1 18,5 8 4 N 1021,1 30
14.08.2019 19:00:00 22,3 18,6 5 3 - 1021,3 10
14.08.2019 18:00:00 22,3 18,2 8 4 NW 1021,7 10
14.08.2019 17:00:00 22,8 18,1 11 6 NNW 1021,5 25
14.08.2019 16:00:00 23,2 18,0 9 5 WNW 1021,7 10
14.08.2019 15:00:00 23,0 18,3 8 4 NE 1021,9 10
14.08.2019 14:00:00 22,6 17,0 11 6 NE 1022,1 25
14.08.2019 13:00:00 22,3 16,7 5 3 ENE 1022,4 10
14.08.2019 12:00:00 21,0 15,7 5 3 E 1022,4 10
14.08.2019 11:00:00 20,4 14,1 8 4 S 1021,8 25
14.08.2019 10:00:00 18,0 14,1 2 1 - 1022,2 10
14.08.2019 09:00:00 17,4 14,1 4 2 E 1021,8 10
14.08.2019 08:00:00 14,6 12,7 5 3 SW 1021,7 35
14.08.2019 07:00:00 14,2 13,1 2 1 - 1021,8 10
14.08.2019 06:00:00 14,5 12,9 8 4 W 1021,6 10
14.08.2019 05:00:00 14,8 13,5 5 3 N 1022,3 35
14.08.2019 04:00:00 14,5 13,4 5 3 NNE 1022,3 10
14.08.2019 03:00:00 14,8 13,2 0 0 N 1021,9 10
14.08.2019 02:00:00 15,4 13,1 8 4 N 1021,9 35
14.08.2019 01:00:00 14,6 12,8 4 2 - 1022,0 10
14.08.2019 00:00:00 15,6 12,7 11 6 W 1022,3 10
13.08.2019 23:00:00 16,0 12,5 11 6 W 1022,2 35
13.08.2019 22:00:00 16,7 13,2 16 9 W 1021,9 10
13.08.2019 21:00:00 18,4 13,5 16 9 WSW 1021,6 10
13.08.2019 20:00:00 20,1 13,5 15 8 W 1021,2 10
13.08.2019 19:00:00 21,0 13,6 18 10 W 1021,2 10
13.08.2019 18:00:00 21,1 13,3 24 13 W 1021,2 10
13.08.2019 17:00:00 21,7 13,3 22 12 WSW 1021,0 10
13.08.2019 16:00:00 22,8 13,0 11 6 W 1021,3 10
13.08.2019 15:00:00 22,6 12,2 8 4 - 1021,7 10
13.08.2019 14:00:00 22,3 12,8 5 3 - 1021,8 10
13.08.2019 13:00:00 21,3 12,8 4 2 N 1022,0 10
13.08.2019 12:00:00 19,1 10,7 4 2 SW 1022,4 10
13.08.2019 11:00:00 18,1 11,6 4 2 E 1022,4 35
13.08.2019 10:00:00 15,7 11,0 4 2 - 1022,6 10
13.08.2019 09:00:00 12,5 9,6 2 1 S 1022,7 10
13.08.2019 08:00:00 11,0 8,9 0 0 N 1022,7 10
13.08.2019 07:00:00 11,6 8,8 2 1 - 1022,5 10
13.08.2019 06:00:00 11,9 8,4 2 1 - 1022,2 10
13.08.2019 05:00:00 12,2 10,1 4 2 NNE 1022,3 10
13.08.2019 04:00:00 12,8 10,7 5 3 NNE 1022,5 10
13.08.2019 03:00:00 13,5 11,0 9 5 NNE 1023,0 10
13.08.2019 02:00:00 14,7 11,3 11 6 NNE 1023,7 10
13.08.2019 01:00:00 15,0 11,6 16 9 N 1023,5 10
13.08.2019 00:00:00 15,6 11,4 22 12 NNE 1023,6 10

tt = temperature
td = dewpoint
ff = wind speed
dd = wind direction
ppp = reduced air pressure
vv = visibility

Next stations